Regional Weather Roundup
Issued by NWS Lake Charles, LA

Home | Current Version | Previous Version | Text Only | Print | Product List | Glossary On
Versions: 1 2 3 4 5 6 7 8 9 10 11 12 13 14 15 16 17 18 19 20 21 22 23 24 25 26 27 28 29 30 31 32 33 34 35 36 37 38 39 40 41 42 43 44 45 46 47 48 49 50
000
ASUS44 KLCH 230910
RWRLCH
REGIONAL WEATHER ROUNDUP
NATIONAL WEATHER SERVICE LAKE CHARLES LA
300 AM CST MON JAN 23 2017

Note: "fair" indicates few or no clouds below 12,000 feet with no
significant weather and/or obstructions to visibility.


ACROSS SOUTHEAST TEXAS

CITY           SKY/WX    TMP DP  RH WIND       PRES   REMARKS
BEAUMONT       CLEAR     53  39  59 W9        29.87R
BEAUMONT CITY  FAIR      53  38  58 NW9       29.89S
ORANGE         MOSUNNY   55  39  55 NW7       29.88R
JASPER         CLEAR     54  40  57 W8        29.88R
$$

ACROSS CENTRAL LOUISIANA

CITY           SKY/WX    TMP DP  RH WIND       PRES   REMARKS
LEESVILLE      CLEAR     52  39  60 NW10      29.80S
FULLERTON      FAIR      53  37  54 VRB6      29.76F
ALEXANDRIA INT CLEAR     52  40  63 NW17      29.76S
ESLER FIELD    CLEAR     52  39  61 NW12      29.77R
DERIDDER       FAIR      53  36  52 NW15G22   29.83S
OAKDALE        SUNNY     55  38  52 NW12G17   29.78F
OPELOUSAS      FAIR      53  38  56 NW10G18   29.77S
$$

ACROSS SOUTHWEST AND SOUTH CENTRAL LOUISIANA

CITY           SKY/WX    TMP DP  RH WIND       PRES   REMARKS
SULPHUR        MOSUNNY   53  39  60 W9        29.85R
LAKE CHARLES   PTCLDY    55  39  54 NW15      29.83R
CHENNAULT INT  CLEAR     54  38  55 NW14      29.83R
CAMERON PHI    SUNNY     54  43  66 W13       29.85R
DEQUINCY       FAIR      53  37  55 NW10      29.84R
JENNINGS       FAIR      54  41  62 NW14G21   30.07F
LAFAYETTE      CLEAR     57  39  51 NW13G22   29.77R
NEW IBERIA     CLEAR     54  39  57 NW14      29.77R
ABBEVILLE      FAIR      54  39  58 NW15      29.78S
PATTERSON      CLEAR     56  44  64 NW13G22   29.75R
SALT POINT     NOT AVBL
$$

SELECTED SITES ACROSS THE REGION

CITY           SKY/WX    TMP DP  RH WIND       PRES   REMARKS
HOUSTON BUSH   CLEAR     53  38  56 NW7       29.93S
HOUSTON HOBBY  CLEAR     55  38  52 NW9       29.94R
GALVESTON      CLEAR     57  44  62 W10       29.94R
COLLEGE STAT   CLEAR     49  37  63 W7        29.96R
CONROE         CLEAR     50  37  61 N6        29.93S
HUNTSVILLE     CLEAR     50  36  58 N6        29.92F
LUFKIN         CLEAR     50  36  58 NW9       29.89S
SHREVEPORT     CLEAR     49  36  61 NW13      29.83S
MONROE         CLEAR     52  39  61 NW15      29.76R
NATCHEZ MS     CLOUDY    54  43  66 NW16G25   29.72S
BATON ROUGE    CLOUDY    56  46  69 NW15      29.73R
N.O. INTL ARPT CLOUDY    58  48  69 NW14G24   29.69R
SLIDELL        CLOUDY    58  50  75 VRB7G23   29.65R
$$

MARINE REPORTS

STATION/POSITION TIME  SKY/WX   TEMP    WIND        PRES    VSBY
                                AIR SEA DIR/SP/G
                 (UTC)          (F)     (DEG/KT/KT) (MB)    (MI)
BUOY 30 S HIGH I 0750            62 65  320/ 23/ 31 1011.7
WVE H/P(F/S)=  4/ 4

SEA RIM ST PARK  0800            54     290/  9/ 10 1012.3R
PORT ARTHUR      0848               63  300/  9/ 13 1011.7R
SABINE PASS N    0848            53 66  290/  4/  8 1013.1R
TEXAS POINT      NOT AVBL
CALCASIEU PASS   0848            55 57  300/  9/ 13   N/A
LK CHARLES BEACH 0848            57 61              1010.4R
MARSH ISLAND     NOT AVBL
FRESH WATER LOCK 0848            57 64  290/ 19/ 29 1009.2R
AMERADA PASS     0848            56 56  290/ 13/ 19 1007.5R
$$



USA.gov is the U.S. government's official web portal to all federal, state and local government web resources and services.